AirNav   Phillips 66 Aviation Fuel
 
 1480 users online  

XS37 Police Heliport
Pasadena, Texas, USA

GOING TO PASADENA?


FAA INFORMATION EFFECTIVE 12 OCTOBER 2017

Location

FAA Identifier: XS37
Lat/Long: 29-41-31.8240N / 095-11-45.7600W
29-41.530400N / 095-11.762667W
29.6921733 / -95.1960444
(estimated)
Elevation: 55 ft. / 17 m (estimated)
Variation: 06E (1985)
From city: 4 miles NE of PASADENA, TX
(LCTD 4NM NE OF GEONA AND 5NM NNW OF ELLINGTON FIELD.)
Time zone: UTC -5 (UTC -6 during Standard Time)
Zip code: 77506

Heliport Operations

Heliport use: Private use. Permission required prior to landing
Activation date: 10/1974
Control tower: no
ARTCC: HOUSTON CENTER
FSS: MONTGOMERY COUNTY FLIGHT SERVICE STATION
FOR FP FILING CALL CXO FSS 1-800-833-5602.
Attendance: UNATNDD
Wind indicator: no
Segmented circle: no

Heliport Communications

WX ASOS at HOU (5 nm SW): PHONE 713-847-1462
WX ASOS at LVJ (11 nm S): 118.525 (281-992-1853)
WX AWOS-3 at AXH (18 nm SW): 123.625 (281-431-6572)
WX ASOS at IAH (19 nm NW): PHONE 281-443-6397

Nearby radio navigation aids

VOR radial/distance  VOR name  Freq  Var
HUBr057/4.7HOBBY VOR/DME117.1005E
IAHr149/17.7HUMBLE VORTAC116.6005E
MHFr284/25.0TRINITY VOR/DME113.6007E
VUHr320/30.6SCHOLES VOR/DME113.0006E

 
NDB name  Hdg/Dist  Freq  Var  ID
SANJAC277/6.734705EJPA .--- .--. .-
NIXIN172/18.132605EBVP -... ...- .--.
GALVESTON305/31.520608EGLS --. .-.. ...

Heliport Services

Airframe service: NONE
Powerplant service: NONE

Runway Information

Helipad H1

Dimensions: 30 x 30 ft. / 9 x 9 m
Surface: concrete
Traffic pattern: leftleft

Heliport Ownership and Management from official FAA records

Ownership: Publicly-owned
Owner: CITY OF PASADENA
Phone 713-477-1221
Manager: LT P.D. COBB
PO BOX 3209
PASADENA, TX 77502
Phone 713-477-1221

Additional Remarks

A52 LIGHTED 200' RADIO TOWER (NO WIRES) 150' SSW OF HELIPAD.
THIS IS RESTRICTED TO POLICE AGENCY USE.

Instrument Procedures

There are no published instrument procedures at XS37.

Some nearby airports with instrument procedures:

KHOU - William P Hobby Airport (5 nm SW)
KEFD - Ellington Airport (5 nm S)
T41 - La Porte Municipal Airport (7 nm E)
KLVJ - Pearland Regional Airport (11 nm S)
KHPY - Baytown Airport (14 nm NE)
KAXH - Houston Southwest Airport (18 nm SW)
54T - RWJ Airpark (19 nm E)
KIAH - George Bush Intercontinental/Houston Airport (19 nm NW)
 
Loc | Ops | Rwys | IFR | FBO | Links
Com | Nav | Svcs | Stats | Notes


 
Area around XS37 (Police Heliport)
 
Road maps at: MapQuest Bing Google
 
Aerial photo
No photo
 
Sectional chart

 
Airport distance calculator
Flying to Police Heliport? Find the distance to fly.

From to XS37

Sunrise and sunset
Times for 18-Oct-2017
 Local
(UTC-5)
 Zulu
(UTC)
Morning civil twilight07:0112:01
Sunrise07:2512:25
Sunset18:4723:47
Evening civil twilight19:1100:11

Current date and time
Zulu (UTC)  18-Oct-2017 14:17:48
Local (UTC-5)  18-Oct-2017 09:17:48
 
METAR
KEFD 
6nm S 
181350Z 01003KT 10SM CLR 19/11 A3018
KHOU 
6nm SW 
181353Z 03005KT 10SM CLR 19/13 A3017 RMK AO2 SLP220 T01940128
KLVJ 
11nm S 
181353Z AUTO 03004KT 8SM CLR 18/12 A3018 RMK AO2 SLP219 T01830122
KAXH 
18nm SW 
181355Z AUTO 02004KT 10SM CLR 16/12 A3018 RMK AO2 T01570122
TAF
KEFD 
6nm S 
181200Z 1812/1918 VRB06KT 9999 SKC QNH3005INS BECMG 1823/1824 VRB06KT 9999 FEW010 SCT020 QNH3008INS TX28/1821Z TN14/1812Z
KHOU 
6nm SW 
181120Z 1812/1912 11005KT P6SM FEW250 FM191000 09003KT P6SM SCT035
NOTAMs
Click for the latest NOTAMs
NOTAMs are issued by the DoD/FAA and will open in a separate window not controlled by AirNav.

 

 
 

Would you like to see your business listed on this page?

 If your business provides an interesting product or service to pilots, flight crews, aircraft, or users of the Police Heliport, you should consider listing it here.  To start the listing process, click on the button below
 
Add a business
 

Other Pages about Police Heliport

Update a link
 
Copyright © AirNav, LLC. All rights reserved. Privacy Policy  Contact